Waarnemingen

Advertentie
Mijn weer
Strasbourg, Frankrijk (7190): temperatuur & dauwpunt: 20.09.2017 14:00:00 - 26.09.2017 14:00:00 (CEST)Strasbourg, Frankrijk (7190): temperatuur 5cm: 20.09.2017 14:00:00 - 26.09.2017 14:00:00 (CEST)Strasbourg, Frankrijk (7190): temperatuur -20cm & temperatuur -100cm: 20.09.2017 14:00:00 - 26.09.2017 14:00:00 (CEST)Strasbourg, Frankrijk (7190): windsnelheid & windstoten: 20.09.2017 14:00:00 - 26.09.2017 14:00:00 (CEST)Strasbourg, Frankrijk (7190): windrichting: 20.09.2017 14:00:00 - 26.09.2017 14:00:00 (CEST)Strasbourg, Frankrijk (7190): luchtdruk: 20.09.2017 14:00:00 - 26.09.2017 14:00:00 (CEST)Strasbourg, Frankrijk (7190): zicht: 20.09.2017 14:00:00 - 26.09.2017 14:00:00 (CEST)Strasbourg, Frankrijk (7190): Zonneschijnduur: 20.09.2017 14:00:00 - 26.09.2017 14:00:00 (CEST)Strasbourg, Frankrijk (7190): neerslag: 20.09.2017 14:00:00 - 26.09.2017 14:00:00 (CEST)
Datum & Tijd tt [°C] td [°C] tt 5cm [°C] tt -20cm [°C] tt -100cm [°C] ff [km/u] ff [kn] fx [km/u] fx [kn] dd ppp [hPa] vv [km] sd [min] rr [mm]
26.09.2017 14:00:00 19,1 11,9 24,7 16,0 17,2 4 2 15 8 NO 1020,7 12 60 0,0
26.09.2017 13:00:00 17,9 12,1 22,4 15,6 17,2 5 3 11 6 ONO 1021,2 10 60 0,0
26.09.2017 12:00:00 16,5 12,5 21,1 15,5 17,2 5 3 13 7 N 1021,5 10 60 0,0
26.09.2017 11:00:00 14,4 11,5 15,2 15,4 17,2 4 2 14 8 NNO 1021,8 10 50 0,0
26.09.2017 10:00:00 11,7 10,4 10,9 15,5 17,2 2 1 6 4 NO 1021,9 9 0 0,0
26.09.2017 09:00:00 9,6 9,1 6,2 15,7 17,2 2 1 4 2 WZW 1021,7 10 0 0,0
26.09.2017 08:00:00 7,0 6,4 4,5 16,0 17,2 3 1 8 5 ZZW 1021,6 8 0 0,0
26.09.2017 07:00:00 7,2 6,5 4,6 16,1 17,2 2 1 6 4 WNW 1021,1 8 0 0,0
26.09.2017 06:00:00 6,8 5,9 4,9 16,4 17,2 4 2 9 5 ZW 1021,0 9 0 0,0
26.09.2017 05:00:00 7,7 6,9 5,2 16,6 17,2 9 5 11 6 ZW 1020,8 8 0 0,0
26.09.2017 04:00:00 8,2 7,3 5,5 16,9 17,2 8 5 11 6 ZW 1020,6 10 0 0,0
26.09.2017 03:00:00 8,7 7,6 6,2 17,1 17,2 3 2 6 3 NNW 1020,4 11 0 0,0
26.09.2017 02:00:00 9,3 7,9 7,2 17,3 17,2 3 2 6 4 W 1020,3 14 0 0,0
26.09.2017 01:00:00 10,4 8,7 7,9 17,5 17,2 3 2 10 6 W 1020,2 17 0 0,0
26.09.2017 00:00:00 11,6 9,5 10,0 17,7 17,2 6 3 11 6 WNW 1020,2 19 0 0,0
25.09.2017 23:00:00 12,2 9,8 10,8 17,8 17,2 8 4 13 7 W 1020,2 18 0 0,0
25.09.2017 22:00:00 13,1 9,9 11,0 18,0 17,2 8 5 14 8 NNW 1019,8 20 0 0,0
25.09.2017 21:00:00 13,3 9,9 11,3 18,1 17,2 8 5 11 6 NW 1019,7 39 0 0,0
25.09.2017 20:00:00 14,8 10,6 12,9 18,1 17,2 6 4 10 5 NNW 1019,3 46 0 0,0
25.09.2017 19:00:00 18,1 10,7 16,1 17,9 17,2 8 4 18 10 NNO 1018,5 54 42 0,0
25.09.2017 18:00:00 20,5 11,4 19,9 17,6 17,2 11 6 19 11 NO 1017,9 26 60 0,0
25.09.2017 17:00:00 21,2 11,2 25,2 17,2 17,2 9 5 22 12 NO 1017,8 36 60 0,0
25.09.2017 16:00:00 20,6 11,2 25,3 16,7 17,2 6 4 19 10 NNO 1018,0 18 60 0,0
25.09.2017 15:00:00 19,7 11,2 24,7 16,3 17,2 6 3 14 8 NO 1018,7 20 60 0,0
25.09.2017 14:00:00 18,4 11,9 22,7 16,0 17,2 3 2 13 7 NO 1018,8 14 60 0,0
25.09.2017 13:00:00 15,1 11,7 15,5 15,8 17,2 4 2 11 6 ONO 1019,4 7 29 0,0
25.09.2017 12:00:00 12,1 11,0 12,7 15,8 17,2 6 3 10 5 NNW 1020,0 3,7 0 0,0
25.09.2017 11:00:00 10,8 10,2 11,6 15,8 17,2 3 1 10 5 O 1020,5 0,7 0 0,0
25.09.2017 10:00:00 10,4 9,8 10,8 15,9 17,1 5 3 15 8 NW 1020,6 0,5 0 0,0
25.09.2017 09:00:00 10,4 9,8 10,4 16,0 17,2 8 4 14 7 NNW 1020,6 1,0 0 0,0
25.09.2017 08:00:00 10,4 9,8 10,4 16,1 17,2 7 4 13 7 NNW 1020,7 2,0 0 0,0
25.09.2017 07:00:00 10,6 10,0 8,5 16,3 17,2 7 4 14 7 N 1020,4 4,2 0 0,0
25.09.2017 06:00:00 9,3 8,7 7,4 16,5 17,1 8 4 12 6 NW 1020,4 3,8 0 0,0
25.09.2017 05:00:00 8,9 8,1 7,0 16,8 17,2 8 5 11 6 NW 1020,6 3,1 0 0,0
25.09.2017 04:00:00 10,3 9,5 7,3 16,9 17,1 5 3 12 6 NNW 1020,7 5 0 0,0
25.09.2017 03:00:00 9,7 8,9 7,5 17,2 17,2 8 4 12 6 NW 1020,8 4,1 0 0,0
25.09.2017 02:00:00 10,3 9,5 8,4 17,4 17,2 6 3 11 6 NW 1020,9 4,7 0 0,0
25.09.2017 01:00:00 11,4 10,0 9,9 17,6 17,2 9 5 14 7 NW 1021,2 6 0 0,0
25.09.2017 00:00:00 11,7 10,1 9,7 17,8 17,2 9 5 11 6 NW 1021,4 6 0 0,0
24.09.2017 23:00:00 12,7 11,1 11,3 17,9 17,2 8 5 11 6 N 1021,6 10 0 0,0
24.09.2017 22:00:00 14,9 11,5 13,4 18,0 17,2 10 6 23 12 N 1021,4 15 0 0,0
24.09.2017 21:00:00 15,9 11,7 13,6 18,1 17,2 11 6 18 10 NNO 1021,1 20 0 0,0
24.09.2017 20:00:00 16,3 11,2 14,1 18,0 17,2 9 5 17 9 N 1020,9 19 0 0,0
24.09.2017 19:00:00 18,4 11,2 17,5 17,9 17,2 12 7 30 16 NNO 1020,6 36 41 0,0
24.09.2017 18:00:00 19,7 10,4 19,4 17,6 17,1 21 11 29 16 NO 1020,3 35 49 0,0
24.09.2017 17:00:00 21,3 10,1 22,5 17,2 17,2 11 6 22 12 NNO 1020,2 38 57 0,0
24.09.2017 16:00:00 20,8 10,9 25,6 16,7 17,1 9 5 21 11 NO 1020,3 30 60 0,0
24.09.2017 15:00:00 20,1 11,6 25,2 16,3 17,1 13 7 23 13 NO 1020,8 19 60 0,0
24.09.2017 14:00:00 18,9 11,7 23,5 16,0 17,1 11 6 22 12 NNO 1021,1 13 60 0,0
24.09.2017 13:00:00 16,5 11,8 17,3 15,7 17,1 9 5 22 12 NNO 1021,8 11 51 0,0
24.09.2017 12:00:00 13,2 10,9 14,6 15,7 17,2 9 5 21 11 NNO 1022,4 5 0 0,0
24.09.2017 11:00:00 12,4 11,1 13,4 15,7 17,2 10 5 19 10 N 1022,6 3,7 0 0,0
24.09.2017 10:00:00 11,9 10,8 12,1 15,8 17,1 10 5 16 9 N 1022,4 2,7 0 0,0
24.09.2017 09:00:00 11,0 10,2 8,7 16,0 17,1 6 4 10 5 NNO 1022,3 4,5 0 0,0
24.09.2017 08:00:00 9,4 8,8 6,3 16,2 17,2 8 5 15 8 N 1022,0 3,2 0 0,0
24.09.2017 07:00:00 8,2 7,1 6,4 16,4 17,1 6 3 13 7 NW 1021,7 3,6 0 0,0
24.09.2017 06:00:00 9,5 8,6 6,6 16,6 17,1 5 3 11 6 NNW 1021,2 3,3 0 0,0
24.09.2017 05:00:00 9,7 8,6 7,4 16,8 17,2 8 4 10 6 NNW 1021,0 5 0 0,0
24.09.2017 04:00:00 10,2 9,0 8,9 17,0 17,1 9 5 13 7 NNW 1021,0 6 0 0,0
24.09.2017 03:00:00 10,5 8,8 8,4 17,2 17,1 8 5 13 7 NNW 1021,2 7 0 0,0
24.09.2017 02:00:00 11,0 9,4 9,4 17,4 17,1 9 5 13 7 NNW 1021,2 7 0 0,0
24.09.2017 01:00:00 11,6 9,3 10,0 17,5 17,1 8 4 12 6 NW 1021,3 8 0 0,0
24.09.2017 00:00:00 13,3 10,3 12,6 17,7 17,1 9 5 13 7 N 1021,3 12 0 0,0
23.09.2017 23:00:00 14,1 10,3 12,1 17,9 17,2 4 2 13 7 N 1021,4 14 0 0,0
23.09.2017 22:00:00 13,3 10,5 10,7 18,0 17,1 4 2 9 5 N 1021,3 16 0 0,0
23.09.2017 21:00:00 13,8 10,6 11,4 18,1 17,2 7 4 11 6 N 1021,3 20 0 0,0
23.09.2017 20:00:00 15,6 10,6 13,8 18,1 17,2 9 5 17 9 N 1020,8 32 0 0,0
23.09.2017 19:00:00 18,0 10,6 16,7 17,9 17,2 12 6 26 14 NNO 1020,5 36 0 0,0
23.09.2017 18:00:00 19,7 10,4 19,9 17,6 17,2 18 10 26 14 NO 1020,5 57 7 0,0
23.09.2017 17:00:00 20,6 10,7 21,5 17,2 17,1 15 8 29 15 ONO 1020,2 52 55 0,0
23.09.2017 16:00:00 21,4 10,8 25,9 16,7 17,1 16 8 29 16 NNO 1020,6 34 60 0,0
23.09.2017 15:00:00 21,2 10,7 26,3 16,2 17,2 16 8 29 16 NO 1021,1 33 60 0,0
23.09.2017 14:00:00 20,4 11,6 24,8 15,8 17,1 13 7 29 16 NO 1021,6 16 60 0,0
23.09.2017 13:00:00 19,4 11,9 23,9 15,4 17,2 12 6 21 11 NNO 1022,1 12 60 0,0
23.09.2017 12:00:00 18,3 12,1 22,4 15,2 17,2 8 4 16 9 NO 1022,8 16 60 0,0
23.09.2017 11:00:00 16,4 11,8 20,4 15,2 17,2 5 3 12 6 NNO 1023,2 17 60 0,0
23.09.2017 10:00:00 14,4 11,7 16,1 15,2 17,2 5 3 13 7 N 1023,4 10 60 0,0
23.09.2017 09:00:00 11,5 10,9 8,3 15,4 17,2 3 2 9 5 N 1023,6 10 53 0,0
23.09.2017 08:00:00 8,1 7,7 5,4 15,6 17,2 2 1 5 3 WZW 1023,5 0,2 1 0,0
23.09.2017 07:00:00 7,6 7,0 5,3 15,8 17,2 3 1 6 3 O 1023,5 5 0 0,0
23.09.2017 06:00:00 8,0 7,4 5,9 16,0 17,2 0 0 7 4 N 1023,3 9 0 0,0
23.09.2017 05:00:00 8,4 7,8 6,4 16,2 17,2 2 1 4 2 NW 1023,3 1,1 0 0,0
23.09.2017 04:00:00 8,0 7,1 6,3 16,4 17,2 0 0 5 3 N 1023,4 11 0 0,0
23.09.2017 03:00:00 9,0 8,2 6,6 16,6 17,2 2 1 3 1 W 1023,3 1,6 0 0,0
23.09.2017 02:00:00 9,5 8,7 7,2 16,9 17,2 0 0 3 2 N 1023,2 10 0 0,0
23.09.2017 01:00:00 10,1 9,2 7,5 17,0 17,2 0 0 5 3 N 1022,9 13 0 0,0
23.09.2017 00:00:00 10,8 9,7 8,8 17,2 17,2 2 1 8 4 W 1022,9 18 0 0,0
22.09.2017 23:00:00 12,1 10,5 9,9 17,3 17,2 6 3 9 5 WZW 1022,8 19 0 0,0
22.09.2017 22:00:00 13,2 10,9 11,3 17,4 17,2 6 4 9 5 WZW 1022,1 30 0 0,0
22.09.2017 21:00:00 15,1 11,5 12,5 17,4 17,2 4 2 5 3 NNO 1021,8 38 0 0,0
22.09.2017 20:00:00 17,0 11,3 14,7 17,3 17,2 0 0 8 4 N 1021,1 9 0 0,0
22.09.2017 19:00:00 19,8 10,5 18,9 17,2 17,2 4 2 10 5 OZO 1020,5 60 37 0,0
22.09.2017 18:00:00 20,7 10,8 20,8 16,8 17,2 0 0 6 3 N 1020,3 59 2 0,0
22.09.2017 17:00:00 20,7 9,6 21,6 16,4 17,2 3 2 14 7 ZW 1020,2 56 14 0,0
22.09.2017 16:00:00 21,6 10,1 24,9 15,8 17,3 9 5 16 9 O 1020,2 48 60 0,0
22.09.2017 15:00:00 21,9 10,1 26,1 15,3 17,2 6 3 14 8 O 1020,3 60 60 0,0
22.09.2017 14:00:00 20,5 10,0 25,0 14,8 17,3 5 3 16 8 OZO 1020,4 45 60 0,0
22.09.2017 13:00:00 18,8 10,6 22,7 14,5 17,2 6 3 16 9 ZZO 1020,9 19 60 0,0
22.09.2017 12:00:00 16,9 9,8 19,9 14,3 17,3 5 3 16 9 Z 1021,1 45 60 0,0
22.09.2017 11:00:00 14,0 9,4 14,7 14,3 17,3 10 5 14 8 Z 1021,6 21 60 0,0
22.09.2017 10:00:00 11,4 8,6 14,1 14,3 17,2 7 4 11 6 Z 1021,6 19 60 0,0
22.09.2017 09:00:00 9,5 8,4 8,0 14,5 17,3 3 1 5 3 Z 1021,5 10 60 0,0
22.09.2017 08:00:00 6,4 6,0 3,7 14,7 17,3 2 1 6 3 WZW 1021,4 12 8 0,0
22.09.2017 07:00:00 5,6 5,0 3,5 14,9 17,3 0 0 5 3 N 1020,9 0,3 0 0,0
22.09.2017 06:00:00 5,6 4,9 3,8 15,1 17,3 2 1 5 3 Z 1020,7 0,8 0 0,0
22.09.2017 05:00:00 6,2 5,6 4,0 15,3 17,3 3 1 4 2 ZZW 1020,7 6 0 0,0
22.09.2017 04:00:00 6,1 5,4 4,2 15,6 17,3 0 0 3 2 N 1020,6 1,7 0 0,0
22.09.2017 03:00:00 6,6 5,7 4,8 15,8 17,3 0 0 4 2 N 1020,7 8 0 0,0
22.09.2017 02:00:00 7,7 6,8 5,3 16,0 17,4 4 2 7 4 ZW 1020,7 15 0 0,0
22.09.2017 01:00:00 8,1 6,9 6,3 16,2 17,3 5 3 8 4 ZZW 1020,5 14 0 0,0
22.09.2017 00:00:00 8,9 7,2 6,6 16,4 17,3 2 1 4 2 ZZW 1020,3 12 0 0,0
21.09.2017 23:00:00 10,0 8,4 8,4 16,6 17,4 4 2 9 5 W 1020,2 18 0 0,0
21.09.2017 22:00:00 11,0 9,1 8,9 16,7 17,3 2 1 10 5 WNW 1019,8 23 0 0,0
21.09.2017 21:00:00 12,1 9,7 10,6 16,7 17,3 6 4 9 5 W 1019,8 31 0 0,0
21.09.2017 20:00:00 13,9 9,7 11,6 16,6 17,4 4 2 11 6 NW 1019,3 11 0 0,0
21.09.2017 19:00:00 17,3 9,9 15,4 16,4 17,4 6 4 21 11 N 1018,7 53 33 0,0
21.09.2017 18:00:00 19,4 9,0 19,4 16,0 17,4 9 5 17 9 NNO 1018,7 44 60 0,0
21.09.2017 17:00:00 19,9 8,6 23,9 15,5 17,4 6 4 18 10 NO 1018,7 45 60 0,0
21.09.2017 16:00:00 19,3 8,0 24,2 15,1 17,4 9 5 20 11 NO 1019,3 52 60 0,0
21.09.2017 15:00:00 18,4 7,8 23,6 14,5 17,4 5 3 17 9 ONO 1019,9 42 60 0,0
21.09.2017 14:00:00 16,7 8,6 21,7 14,1 17,4 5 3 17 9 N 1020,7 6 60 0,0
21.09.2017 13:00:00 13,7 9,7 14,0 13,9 17,4 4 2 13 7 O 1021,6 13 51 0,0
21.09.2017 12:00:00 10,4 9,3 11,3 13,7 17,4 4 2 9 5 NNO 1022,4 6 0 0,0
21.09.2017 11:00:00 8,5 8,2 9,7 13,7 17,4 3 2 8 5 Z 1022,8 1,3 0 0,0
21.09.2017 10:00:00 7,8 7,5 8,0 13,7 17,4 4 2 8 4 ZW 1023,0 0,3 0 0,0
21.09.2017 09:00:00 6,6 6,3 6,5 13,8 17,4 2 1 5 3 WZW 1022,9 0,2 0 0,0
21.09.2017 08:00:00 6,0 5,7 5,8 13,9 17,5 2 1 5 3 OZO 1022,7 0,1 0 0,0
21.09.2017 07:00:00 5,8 5,4 5,7 14,1 17,5 0 0 5 3 N 1022,7 0,1 0 0,0
21.09.2017 06:00:00 6,2 5,8 5,9 14,2 17,4 0 0 4 2 N 1022,5 0,1 0 0,0
21.09.2017 05:00:00 6,5 6,2 3,6 14,4 17,5 3 2 5 3 WZW 1022,8 0,2 0 0,0
21.09.2017 04:00:00 4,8 4,2 2,5 14,6 17,5 0 0 4 2 N 1023,0 0,4 0 0,0
21.09.2017 03:00:00 5,0 4,4 2,8 14,9 17,5 0 0 4 2 N 1023,1 0,3 0 0,0
21.09.2017 02:00:00 5,9 5,3 3,4 15,1 17,5 0 0 4 2 N 1023,2 0,4 0 0,0
21.09.2017 01:00:00 5,9 5,2 3,7 15,3 17,5 2 1 5 3 ZW 1023,4 6 0 0,0
21.09.2017 00:00:00 6,9 6,0 4,6 15,5 17,5 3 2 9 5 WNW 1023,4 6 0 0,0
20.09.2017 23:00:00 7,2 6,3 5,0 15,7 17,5 5 3 9 5 ZZW 1023,2 9 0 0,0
20.09.2017 22:00:00 8,5 7,4 7,2 15,8 17,5 2 1 6 3 W 1023,3 7 0 0,0
20.09.2017 21:00:00 9,9 8,7 7,1 15,9 17,5 0 0 9 5 N 1023,2 12 0 0,0
20.09.2017 20:00:00 11,8 9,0 8,4 15,9 17,5 5 3 12 6 NO 1022,7 14 0 0,0
20.09.2017 19:00:00 14,1 9,3 12,9 15,8 17,5 9 5 16 8 NNO 1022,4 35 44 0,0
20.09.2017 18:00:00 16,0 9,4 16,4 15,7 17,5 8 4 18 10 NNO 1022,1 39 47 0,0
20.09.2017 17:00:00 15,2 9,3 15,6 15,5 17,5 16 8 23 12 NNW 1022,4 43 23 0,0
20.09.2017 16:00:00 15,0 9,8 15,5 15,2 17,5 12 6 24 13 NW 1022,6 24 0 0,0
20.09.2017 15:00:00 16,3 8,8 18,3 14,9 17,5 7 4 15 8 NNO 1022,5 37 35 0,0
20.09.2017 14:00:00 16,4 8,4 16,6 14,7 17,5 4 2 11 6 W 1022,9 28 16 0,0

tt = temperatuur
td = dauwpunt
tt 5cm = temperatuur 5cm
tt -20cm = temperatuur -20cm
tt -100cm = temperatuur -100cm
ff = windsnelheid
fx = windstoten
dd = windrichting
ppp = luchtdruk
vv = zicht
sd = Zonneschijnduur
rr = neerslag

Weerstations in de omgeving